When you browse on this site, cookies collect data to enhance your experience and personalize the content and advertising you see.
Visit our Privacy Policy to learn more. By continuing to use the site, you agree to this use of cookies and data.
  • In Österreich
  • Länderverzeichnis
  • Für 7 Tage
  • Wassertemperatur
  • Wetterkarte
  • News
  • Widgets
  • user-avatar
    Anmelden

    Stündliche Wetter Asadabad

    Heute, 22 Februar, Samstag

    Zeit Temperatur Niederschläge Wind Luftdruck Luftfeuchtigkeit
    00:00 +10°C° 0 mm 1 m/S 661 mmHg 50%
    01:00 +9°C° 0 mm 2 m/S 661 mmHg 48%
    02:00 +9°C° 0 mm 2 m/S 661 mmHg 47%
    03:00 +9°C° 0 mm 2 m/S 661 mmHg 46%
    04:00 +8°C° 0 mm 2 m/S 661 mmHg 44%
    05:00 +8°C° 0 mm 2 m/S 661 mmHg 43%
    06:00 +9°C° 0 mm 2 m/S 661 mmHg 43%
    07:00 +9°C° 0 mm 2 m/S 661 mmHg 43%
    08:00 +9°C° 0 mm 2 m/S 662 mmHg 42%
    09:00 +12°C° 0 mm 2 m/S 662 mmHg 38%
    10:00 +14°C° 0 mm 2 m/S 662 mmHg 33%
    11:00 +15°C° 0 mm 1 m/S 662 mmHg 28%
    12:00 +16°C° 0 mm 1 m/S 662 mmHg 28%
    13:00 +18°C° 0 mm 1 m/S 662 mmHg 28%
    14:00 +18°C° 0 mm 1 m/S 662 mmHg 28%
    15:00 +18°C° 0 mm 1 m/S 661 mmHg 30%
    16:00 +18°C° 0 mm 1 m/S 661 mmHg 32%
    17:00 +18°C° 0 mm 1 m/S 661 mmHg 34%
    18:00 +15°C° 0 mm 1 m/S 661 mmHg 41%
    19:00 +13°C° 0 mm 1 m/S 661 mmHg 48%
    20:00 +11°C° 0 mm 0 m/S 661 mmHg 55%
    21:00 +11°C° 0 mm 1 m/S 661 mmHg 53%
    22:00 +11°C° 0 mm 1 m/S 661 mmHg 51%
    23:00 +10°C° 0 mm 2 m/S 661 mmHg 49%

    Morgen, 23 Februar, Sonntag

    Zeit Temperatur Niederschläge Wind Luftdruck Luftfeuchtigkeit
    00:00 +10°C° 0 mm 2 m/S 661 mmHg 47%
    01:00 +9°C° 0 mm 2 m/S 660 mmHg 45%
    02:00 +9°C° 0 mm 3 m/S 660 mmHg 44%
    03:00 +9°C° 0 mm 3 m/S 659 mmHg 43%
    04:00 +8°C° 0 mm 3 m/S 659 mmHg 42%
    05:00 +8°C° 0 mm 3 m/S 659 mmHg 42%
    06:00 +8°C° 0 mm 3 m/S 659 mmHg 41%
    07:00 +9°C° 0 mm 3 m/S 659 mmHg 40%
    08:00 +9°C° 0 mm 3 m/S 660 mmHg 39%
    09:00 +12°C° 0 mm 2 m/S 660 mmHg 35%
    10:00 +14°C° 0 mm 2 m/S 660 mmHg 30%
    11:00 +16°C° 0 mm 1 m/S 661 mmHg 26%
    12:00 +18°C° 0 mm 1 m/S 660 mmHg 26%
    13:00 +19°C° 0 mm 1 m/S 660 mmHg 25%
    14:00 +19°C° 0 mm 1 m/S 660 mmHg 25%
    15:00 +18°C° 0 mm 2 m/S 660 mmHg 27%
    16:00 +18°C° 0 mm 2 m/S 659 mmHg 28%
    17:00 +18°C° 0 mm 2 m/S 659 mmHg 30%
    18:00 +16°C° 0 mm 1 m/S 659 mmHg 37%
    19:00 +14°C° 0 mm 1 m/S 659 mmHg 44%
    20:00 +11°C° 0 mm 0 m/S 659 mmHg 51%
    21:00 +12°C° 0 mm 1 m/S 659 mmHg 49%
    22:00 +11°C° 0 mm 1 m/S 659 mmHg 48%
    23:00 +10°C° 0 mm 2 m/S 659 mmHg 46%

    übermorgen, 24 Februar, Montag

    Zeit Temperatur Niederschläge Wind Luftdruck Luftfeuchtigkeit
    00:00 +10°C° 0 mm 2 m/S 659 mmHg 45%
    01:00 +10°C° 0 mm 2 m/S 658 mmHg 43%
    02:00 +9°C° 0 mm 3 m/S 658 mmHg 42%
    03:00 +9°C° 0 mm 3 m/S 658 mmHg 42%
    04:00 +9°C° 0 mm 3 m/S 657 mmHg 41%
    05:00 +8°C° 0 mm 3 m/S 657 mmHg 41%
    06:00 +9°C° 0 mm 3 m/S 657 mmHg 40%
    07:00 +9°C° 0 mm 3 m/S 658 mmHg 39%
    08:00 +10°C° 0 mm 3 m/S 658 mmHg 39%
    09:00 +11°C° 0 mm 3 m/S 658 mmHg 34%
    10:00 +14°C° 0 mm 2 m/S 658 mmHg 30%
    11:00 +16°C° 0 mm 1 m/S 659 mmHg 25%
    12:00 +18°C° 0 mm 1 m/S 658 mmHg 25%
    13:00 +18°C° 0 mm 1 m/S 658 mmHg 26%
    14:00 +19°C° 0 mm 1 m/S 658 mmHg 26%
    15:00 +18°C° 0 mm 2 m/S 657 mmHg 27%
    16:00 +18°C° 0 mm 2 m/S 657 mmHg 28%
    17:00 +17°C° 0 mm 2 m/S 657 mmHg 29%
    18:00 +16°C° 0 mm 1 m/S 657 mmHg 37%
    19:00 +14°C° 0 mm 1 m/S 657 mmHg 44%
    20:00 +11°C° 0 mm 0 m/S 657 mmHg 51%
    21:00 +12°C° 0 mm 1 m/S 657 mmHg 49%
    22:00 +12°C° 0 mm 1 m/S 657 mmHg 47%
    23:00 +10°C° 0 mm 2 m/S 657 mmHg 45%

    25 Februar, Dienstag

    Zeit Temperatur Niederschläge Wind Luftdruck Luftfeuchtigkeit
    00:00 +10°C° 0 mm 2 m/S 657 mmHg 44%
    01:00 +10°C° 0 mm 2 m/S 657 mmHg 43%
    02:00 +9°C° 0 mm 3 m/S 656 mmHg 42%
    03:00 +9°C° 0 mm 3 m/S 656 mmHg 41%
    04:00 +8°C° 0 mm 3 m/S 656 mmHg 41%
    05:00 +8°C° 0 mm 3 m/S 656 mmHg 41%
    06:00 +9°C° 0 mm 3 m/S 656 mmHg 40%
    07:00 +9°C° 0 mm 3 m/S 656 mmHg 39%
    08:00 +10°C° 0 mm 3 m/S 657 mmHg 38%
    09:00 +12°C° 0 mm 3 m/S 657 mmHg 34%
    10:00 +14°C° 0 mm 2 m/S 657 mmHg 30%
    11:00 +16°C° 0 mm 1 m/S 657 mmHg 26%
    12:00 +17°C° 0 mm 2 m/S 657 mmHg 26%
    13:00 +17°C° 0 mm 2 m/S 657 mmHg 26%
    14:00 +18°C° 0 mm 2 m/S 657 mmHg 26%
    15:00 +18°C° 0 mm 2 m/S 656 mmHg 27%
    16:00 +17°C° 0 mm 2 m/S 656 mmHg 28%
    17:00 +17°C° 0 mm 2 m/S 656 mmHg 29%
    18:00 +15°C° 0 mm 1 m/S 656 mmHg 35%
    19:00 +14°C° 0 mm 1 m/S 656 mmHg 42%
    20:00 +11°C° 0 mm 0 m/S 656 mmHg 48%
    21:00 +12°C° 0 mm 1 m/S 657 mmHg 46%
    22:00 +11°C° 0 mm 1 m/S 657 mmHg 45%
    23:00 +10°C° 0 mm 2 m/S 657 mmHg 43%

    26 Februar, Mittwoch

    Zeit Temperatur Niederschläge Wind Luftdruck Luftfeuchtigkeit
    00:00 +10°C° 0 mm 2 m/S 657 mmHg 40%
    01:00 +10°C° 0 mm 3 m/S 657 mmHg 38%
    02:00 +9°C° 0 mm 3 m/S 656 mmHg 36%
    03:00 +9°C° 0 mm 3 m/S 656 mmHg 34%
    04:00 +8°C° 0 mm 3 m/S 655 mmHg 32%
    05:00 +8°C° 0 mm 3 m/S 655 mmHg 30%
    06:00 +9°C° 0 mm 3 m/S 655 mmHg 30%
    07:00 +9°C° 0 mm 3 m/S 655 mmHg 29%
    08:00 +10°C° 0 mm 3 m/S 655 mmHg 29%
    09:00 +13°C° 0 mm 2 m/S 656 mmHg 25%
    10:00 +15°C° 0 mm 2 m/S 656 mmHg 21%
    11:00 +18°C° 0 mm 1 m/S 657 mmHg 17%
    12:00 +18°C° 0 mm 1 m/S 656 mmHg 18%
    13:00 +19°C° 0 mm 1 m/S 656 mmHg 18%
    14:00 +19°C° 0 mm 1 m/S 656 mmHg 19%
    15:00 +19°C° 0 mm 1 m/S 657 mmHg 22%
    16:00 +18°C° 0 mm 2 m/S 657 mmHg 25%
    17:00 +17°C° 0 mm 2 m/S 657 mmHg 28%
    18:00 +16°C° 0 mm 1 m/S 657 mmHg 34%
    19:00 +15°C° 0 mm 1 m/S 657 mmHg 40%
    20:00 +13°C° 0 mm 0 m/S 657 mmHg 46%
    21:00 +13°C° 0 mm 1 m/S 657 mmHg 46%
    22:00 +13°C° 0 mm 1 m/S 657 mmHg 45%
    23:00 +13°C° 0 mm 1 m/S 657 mmHg 45%

    27 Februar, Donnerstag

    Zeit Temperatur Niederschläge Wind Luftdruck Luftfeuchtigkeit
    00:00 +12°C° 0 mm 1 m/S 657 mmHg 46%
    01:00 +12°C° 0 mm 2 m/S 657 mmHg 47%
    02:00 +10°C° 0 mm 2 m/S 656 mmHg 48%
    03:00 +10°C° 0 mm 2 m/S 656 mmHg 47%
    04:00 +10°C° 0 mm 2 m/S 656 mmHg 47%
    05:00 +10°C° 0 mm 2 m/S 656 mmHg 47%
    06:00 +10°C° 0 mm 2 m/S 656 mmHg 46%
    07:00 +12°C° 0 mm 2 m/S 656 mmHg 45%
    08:00 +12°C° 0 mm 2 m/S 657 mmHg 44%
    09:00 +14°C° 0 mm 2 m/S 657 mmHg 38%
    10:00 +15°C° 0 mm 1 m/S 657 mmHg 33%
    11:00 +18°C° 0 mm 1 m/S 658 mmHg 28%
    12:00 +18°C° 0.1 mm 1 m/S 657 mmHg 31%
    13:00 +16°C° 0.1 mm 1 m/S 657 mmHg 33%
    14:00 +16°C° 0.1 mm 1 m/S 656 mmHg 36%
    15:00 +16°C° 0 mm 1 m/S 656 mmHg 37%
    16:00 +16°C° 0 mm 1 m/S 656 mmHg 38%
    17:00 +16°C° 0 mm 1 m/S 656 mmHg 39%
    18:00 +15°C° 0.1 mm 1 m/S 656 mmHg 46%
    19:00 +14°C° 0.1 mm 1 m/S 656 mmHg 53%
    20:00 +13°C° 0.1 mm 2 m/S 656 mmHg 60%
    21:00 +12°C° 0 mm 2 m/S 656 mmHg 62%
    22:00 +12°C° 0 mm 2 m/S 656 mmHg 64%
    23:00 +12°C° 0 mm 2 m/S 655 mmHg 66%
    Mehr zeigen